Home   Weather   Huntington Beach   Past weeks
Flag for USA

Past Weather in Huntington Beach, California, USA — Yesterday and Last 2 Weeks

Now
74 °F

Scattered clouds.


Feels Like: 77 °F
Forecast: 71 / 63 °F
Wind: 13 mph from Southwest

Location: John Wayne Airport-Orange County Airport

Current Time: Jul 19, 2019 at 1:48:34 pm

Latest Report: Jul 19, 2019 at 12:53 pm


Visibility: 10 mi

Pressure: 29.94 "Hg

Humidity: 56%

Dew Point: 57 °F

Location of Huntington BeachLocation

Past Weather in Huntington Beach — Graph

°F

Huntington Beach Temperature Yesterday

Maximum temperature yesterday: 78 °F (at 2:53 pm)
Minimum temperature yesterday: 65 °F (at 11:53 pm)
Average temperature yesterday: 70 °F

High & Low Weather Summary for the Past Weeks

 TemperatureHumidityPressure
High79 °F (Jul 14, 1:53 pm)91% (Jul 16, 2:53 am)30.05 "Hg (Jul 16, 2:53 am)
Low1 °F (Jul 5, 3:53 am)50% (Jul 9, 12:53 pm)29.78 "Hg (Jul 12, 5:53 pm)
Average69 °F70%29.94 "Hg
* Reported Jul 4 11:53 am — Jul 19 11:53 am, Huntington Beach. Weather by CustomWeather, © 2019

Note: Actual official high and low records may vary slightly from our data, if they occured in-between our weather recording intervals... More about our weather records

Advertising

Huntington Beach Weather History for the Previous 24 Hours

Scroll right to see more
 ConditionsComfort  
Time TempWeatherWind HumidityBarometerVisibility
11:53 am
Fri, Jul 19
74 °FScattered clouds.12 mph56%29.95 "Hg10 mi
10:53 am73 °FScattered clouds.7 mph59%29.95 "Hg10 mi
9:53 am71 °FBroken clouds.3 mph61%29.95 "Hg10 mi
8:53 am71 °FPartly sunny.No wind61%29.95 "Hg10 mi
7:53 am69 °FPartly sunny.3 mph63%29.94 "Hg10 mi
6:53 am67 °FPartly sunny.6 mph68%29.93 "Hg10 mi
5:53 am67 °FPassing clouds.No wind66%29.93 "Hg10 mi
4:53 am67 °FOvercast.5 mph66%29.92 "Hg10 mi
3:53 am67 °FOvercast.No wind68%29.92 "Hg10 mi
2:53 am67 °FOvercast.3 mph68%29.92 "Hg10 mi
2:41 am66 °FOvercast.5 mph73%29.92 "Hg10 mi
1:53 am66 °FOvercast.3 mph75%29.93 "Hg10 mi
12:53 am66 °FOvercast.7 mph75%29.93 "Hg10 mi
12:25 am66 °FOvercast.5 mph75%29.93 "Hg10 mi
12:11 am66 °FPassing clouds.3 mph75%29.93 "Hg10 mi
11:53 pm
Thu, Jul 18
65 °FClear.5 mph78%29.93 "Hg10 mi
10:53 pm66 °FPassing clouds.5 mph75%29.94 "Hg8 mi
9:53 pm66 °FPassing clouds.5 mph75%29.93 "Hg8 mi
8:53 pm67 °FPassing clouds.8 mph73%29.91 "Hg8 mi
7:53 pm69 °FPassing clouds.6 mph68%29.89 "Hg10 mi
6:53 pm70 °FPassing clouds.8 mph66%29.89 "Hg10 mi
5:53 pm72 °FPassing clouds.9 mph64%29.90 "Hg10 mi
4:53 pm75 °FPassing clouds.9 mph60%29.90 "Hg10 mi
3:53 pm76 °FSunny.9 mph60%29.91 "Hg10 mi
2:53 pm78 °FSunny.9 mph54%29.93 "Hg10 mi
1:53 pm77 °FSunny.12 mph54%29.95 "Hg10 mi
Weather by CustomWeather, © 2019

See weather overview